Weather History for KHBR - November, 2012

Change the Weather History Date:

Thursday, November 29, 2012

  Actual Average Record
Temperature  
Mean Temperature 56 °F -  
Max Temperature 69 °F 53 °F 73 °F (2014)
Min Temperature 43 °F 32 °F 12 °F (2001)
Degree Days  
Heating Degree Days 9    
Growing Degree Days 6 (Base 50)    
Moisture  
Dew Point 42 °F    
Average Humidity 62    
Maximum Humidity 82    
Minimum Humidity 39    
Precipitation  
Precipitation 0.00 in - - ()
Sea Level Pressure  
Sea Level Pressure 30.04 in    
Wind  
Wind Speed 18 mph (South)    
Max Wind Speed 28 mph    
Max Gust Speed 33 mph    
Visibility 10 miles    
Events      
Averages and records for this station are not official NWS values.
T = Trace of Precipitation, MM = Missing Value Source: NWS Daily Summary

Daily Weather History Graph

Daily Weather History Graph

Search for Another Location

Airport or City:

Trip Planner

Search our weather history database for the weather conditions in past years. The results will help you decide how hot, cold, wet, or windy it might be!

Date:

Astronomy

Nov. 29, 2012 Rise Set
Actual Time 7:24 AM CST 5:24 PM CST
Civil Twilight 6:56 AM CST 5:52 PM CST
Nautical Twilight 6:25 AM CST 6:23 PM CST
Astronomical Twilight 5:55 AM CST 6:54 PM CST
Moon 6:29 PM CST (11/29) 8:12 AM CST (11/29)
Length of Visible Light 10h 55m
Length of Day
10h 00m
Full, 99% of the Moon is Illuminated
Nov 29
Full
Dec 6
Last Quarter
Dec 13
New
Dec 19
First Quarter
Dec 28
Full

Hourly Weather History & Observations

Time (CST) Temp. Windchill Dew Point Humidity Pressure Visibility Wind Dir Wind Speed Gust Speed Precip Events Conditions
12:53 AM 50.0 °F - 37.9 °F 63% 30.12 in 10.0 mi South 19.6 mph - N/A   Clear
1:53 AM 48.0 °F - 37.0 °F 66% 30.11 in 10.0 mi South 18.4 mph - N/A   Clear
2:53 AM 46.0 °F 39.9 °F 37.9 °F 73% 30.12 in 10.0 mi South 13.8 mph - N/A   Clear
3:53 AM 44.1 °F 37.4 °F 37.0 °F 76% 30.12 in 10.0 mi South 13.8 mph - N/A   Clear
4:53 AM 43.0 °F 35.7 °F 37.0 °F 80% 30.10 in 10.0 mi South 15.0 mph - N/A   Clear
5:53 AM 45.0 °F 37.9 °F 39.0 °F 80% 30.09 in 10.0 mi South 16.1 mph - N/A   Clear
6:53 AM 45.0 °F 37.6 °F 39.0 °F 80% 30.09 in 10.0 mi South 17.3 mph - N/A   Clear
7:53 AM 44.1 °F 36.2 °F 39.0 °F 82% 30.08 in 10.0 mi South 18.4 mph - N/A   Clear
8:53 AM 48.9 °F - 41.0 °F 74% 30.09 in 10.0 mi South 19.6 mph 25.3 mph N/A   Clear
9:53 AM 54.0 °F - 42.1 °F 64% 30.08 in 10.0 mi South 25.3 mph 33.4 mph N/A   Clear
10:53 AM 59.0 °F - 43.0 °F 55% 30.06 in 10.0 mi SSW 25.3 mph 32.2 mph N/A   Clear
11:53 AM 62.1 °F - 43.0 °F 50% 30.04 in 10.0 mi SSW 27.6 mph 32.2 mph N/A   Clear
12:53 PM 66.0 °F - 43.0 °F 43% 30.02 in 10.0 mi South 20.7 mph 28.8 mph N/A   Clear
1:53 PM 68.0 °F - 43.0 °F 40% 29.99 in 10.0 mi South 21.9 mph 27.6 mph N/A   Clear
2:53 PM 69.1 °F - 43.0 °F 39% 29.96 in 10.0 mi South 21.9 mph 27.6 mph N/A   Clear
3:53 PM 69.1 °F - 43.0 °F 39% 29.96 in 10.0 mi SSW 23.0 mph - N/A   Clear
4:53 PM 66.0 °F - 44.1 °F 45% 29.98 in 10.0 mi South 13.8 mph - N/A   Clear
5:53 PM 60.1 °F - 44.1 °F 55% 29.99 in 10.0 mi South 8.1 mph - N/A   Clear
6:53 PM 54.0 °F - 42.1 °F 64% 30.00 in 10.0 mi South 10.4 mph - N/A   Clear
7:53 PM 59.0 °F - 45.0 °F 60% 30.00 in 10.0 mi South 16.1 mph - N/A   Clear
8:53 PM 59.0 °F - 46.0 °F 62% 30.01 in 10.0 mi South 17.3 mph - N/A   Clear
9:53 PM 57.9 °F - 45.0 °F 62% 30.01 in 10.0 mi South 17.3 mph - N/A   Clear
10:53 PM 55.9 °F - 46.0 °F 69% 30.01 in 10.0 mi South 16.1 mph - N/A   Clear
11:53 PM 55.0 °F - 46.0 °F 72% 30.00 in 10.0 mi South 17.3 mph - N/A   Clear